TimeEST,TemperatureF,Dew PointF,Humidity,Sea Level PressureIn,VisibilityMPH,Wind Direction,Wind SpeedMPH,Gust SpeedMPH,PrecipitationIn,Events,Conditions,WindDirDegrees,DateUTC
12:54 AM,-0.9,-4.0,87,30.36,-9999.0,North,-9999.0,-,N/A,,Unknown,0,2013-02-10 05:54:00
1:54 AM,-2.0,-6.0,83,30.37,-9999.0,North,-9999.0,-,N/A,,Unknown,0,2013-02-10 06:54:00
2:54 AM,-4.0,-8.0,83,30.38,-9999.0,North,-9999.0,-,N/A,,Unknown,0,2013-02-10 07:54:00
3:54 AM,-6.0,-9.9,83,30.40,-9999.0,North,-9999.0,-,N/A,,Unknown,0,2013-02-10 08:54:00
4:54 AM,-8.0,-11.0,86,30.43,-9999.0,North,-9999.0,-,N/A,,Unknown,0,2013-02-10 09:54:00
5:54 AM,-9.0,-13.0,83,30.45,-9999.0,North,-9999.0,-,N/A,,Unknown,0,2013-02-10 10:54:00
6:54 AM,-9.9,-14.1,82,30.48,-9999.0,North,-9999.0,-,N/A,,Unknown,0,2013-02-10 11:54:00
7:54 AM,-9.0,-13.0,83,30.50,-9999.0,North,-9999.0,-,N/A,,Unknown,0,2013-02-10 12:54:00
8:54 AM,-4.0,-8.0,83,30.50,-9999.0,North,-9999.0,-,N/A,,Unknown,0,2013-02-10 13:54:00
9:54 AM,3.0,-4.0,73,30.50,-9999.0,North,-9999.0,-,N/A,,Unknown,0,2013-02-10 14:54:00
10:54 AM,12.0,-2.9,51,30.49,-9999.0,North,-9999.0,-,N/A,,Unknown,0,2013-02-10 15:54:00
11:54 AM,19.0,-2.9,38,30.46,-9999.0,North,-9999.0,-,N/A,,Unknown,0,2013-02-10 16:54:00
12:54 PM,21.0,-0.9,38,30.44,-9999.0,North,-9999.0,-,N/A,,Unknown,0,2013-02-10 17:54:00
1:54 PM,24.1,-0.9,34,30.40,-9999.0,North,-9999.0,-,N/A,,Unknown,0,2013-02-10 18:54:00
2:54 PM,26.1,-2.0,30,30.39,-9999.0,North,-9999.0,-,N/A,,Unknown,0,2013-02-10 19:54:00
3:54 PM,27.0,1.0,33,30.40,-9999.0,North,-9999.0,-,N/A,,Unknown,0,2013-02-10 20:54:00
4:54 PM,26.1,-0.0,32,30.40,-9999.0,North,-9999.0,-,N/A,,Unknown,0,2013-02-10 21:54:00
5:54 PM,21.0,6.1,53,30.40,-9999.0,North,-9999.0,-,N/A,,Unknown,0,2013-02-10 22:54:00
6:54 PM,16.0,7.0,68,30.40,-9999.0,North,-9999.0,-,N/A,,Unknown,0,2013-02-10 23:54:00
7:54 PM,14.0,6.1,71,30.39,-9999.0,North,-9999.0,-,N/A,,Unknown,0,2013-02-11 00:54:00
8:54 PM,10.9,5.0,77,30.39,-9999.0,North,-9999.0,-,N/A,,Unknown,0,2013-02-11 01:54:00
9:54 PM,9.0,3.9,80,30.38,-9999.0,North,-9999.0,-,N/A,,Unknown,0,2013-02-11 02:54:00
10:54 PM,7.0,1.9,80,30.38,-9999.0,North,-9999.0,-,N/A,,Unknown,0,2013-02-11 03:54:00
11:54 PM,5.0,1.9,87,30.36,-9999.0,North,-9999.0,-,N/A,,Unknown,0,2013-02-11 04:54:00